GEFSSGP_850_meantemp_012.txt.gz
Temperature
23 22 22 23 20 19 22 23 23 23 23 23 23 22 22 21 21 21 21 20 20 20 20 20 19 19 19 19 18 19 19 18 18 18 18 18 19 19 19 18 18 18 18 18 18 18 18 18 18
22 22 22 22 19 20 22 23 23 24 23 23 23 22 21 21 21 21 20 20 20 20 20 20 19 19 19 18 18 18 19 18 18 18 18 18 19 19 18 18 18 18 18 18 18 18 18 18 18
22 22 23 19 20 21 23 24 23 24 23 23 22 22 21 21 21 21 20 20 19 19 19 19 19 19 19 18 18 18 18 18 18 18 18 19 19 18 18 18 18 18 18 18 18 18 18 18 18
22 22 22 20 23 22 22 23 23 23 23 23 22 21 21 21 21 21 20 20 19 19 19 19 19 19 19 18 18 18 18 18 18 18 18 18 18 18 18 18 18 18 18 18 18 18 17 17 17
22 23 20 21 23 23 23 24 24 23 23 23 22 20 21 21 21 20 20 20 19 19 19 19 19 19 19 18 18 18 18 18 18 18 18 18 18 18 18 18 18 18 18 18 17 17 17 17 17
22 20 20 21 23 24 24 25 24 23 23 22 22 20 21 21 21 20 20 19 19 19 19 19 19 19 19 18 18 18 18 18 18 18 18 18 18 18 18 18 17 18 18 18 17 17 17 17 17
21 19 21 22 22 24 25 25 24 23 22 23 23 20 21 22 21 21 20 19 19 19 19 19 19 19 19 19 18 18 18 18 18 18 18 18 18 18 17 17 17 18 18 17 17 16 16 17 16
22 19 21 21 23 24 25 26 25 24 23 23 23 21 21 22 21 21 20 20 19 19 19 19 19 19 19 18 18 18 18 18 18 18 18 18 18 18 17 17 17 17 17 17 16 16 16 16 16
22 19 21 22 23 24 25 26 26 25 24 23 23 24 24 23 21 21 20 20 20 20 20 19 19 19 19 19 18 18 18 18 18 18 18 18 18 18 17 17 17 17 16 16 16 16 16 16 16
21 20 22 23 23 24 25 26 26 25 23 23 23 24 23 22 22 21 21 21 21 20 20 20 19 19 19 19 18 18 18 18 18 18 18 17 17 17 17 17 17 17 16 16 16 16 16 16 16
22 21 22 23 25 25 25 26 26 25 23 23 24 24 24 22 22 22 22 22 21 21 20 20 20 19 19 19 19 19 18 18 18 17 17 17 17 17 17 17 17 17 16 16 16 16 16 16 16
22 22 23 24 25 26 26 26 26 25 26 26 26 25 25 24 23 23 23 22 22 21 20 20 20 20 19 19 19 18 18 18 18 18 17 18 17 17 17 17 17 17 16 16 16 16 16 16 16
21 22 23 24 25 25 26 25 26 26 26 26 26 25 25 25 24 24 23 23 22 21 21 20 20 20 20 19 19 18 18 18 18 18 18 18 17 17 17 17 17 17 16 16 16 16 16 16 16
22 22 23 24 25 25 25 25 25 26 26 26 26 25 25 25 24 24 23 22 22 21 21 20 20 20 20 19 19 18 18 18 17 17 17 17 17 17 17 17 17 17 17 16 16 16 16 16 16
22 22 23 24 24 25 25 24 24 26 26 26 26 25 25 24 24 24 23 23 22 22 21 21 21 20 20 19 19 18 18 17 17 17 17 17 17 17 17 17 17 17 17 16 16 16 16 16 16
22 22 22 23 24 24 24 23 23 26 25 25 25 25 24 24 23 23 23 22 22 22 21 21 21 21 20 19 19 18 18 17 17 17 17 17 17 17 17 17 17 16 16 16 16 16 16 16 16
20 21 22 22 24 23 23 22 23 25 25 24 24 24 24 24 23 23 22 22 22 22 22 21 21 21 20 20 19 18 18 17 17 17 17 17 17 17 17 17 17 16 16 16 16 16 16 16 15
20 21 21 22 23 23 22 22 22 24 23 24 24 24 24 23 23 23 22 22 22 22 22 21 21 20 20 19 19 18 18 17 17 17 17 17 17 17 17 17 16 16 17 16 16 16 16 16 15
21 21 20 21 22 22 21 21 22 22 22 22 22 22 23 22 22 22 23 23 23 22 21 21 20 20 19 19 19 18 18 18 17 17 17 17 17 17 17 17 17 17 17 17 17 16 16 16 15
21 20 20 21 22 22 21 20 21 21 22 22 22 22 21 21 22 22 22 22 22 21 21 20 19 19 19 19 19 18 18 17 17 17 17 17 17 17 17 17 17 17 17 17 17 17 16 16 15
21 20 20 20 21 21 21 20 20 21 22 22 22 21 21 21 22 22 22 21 21 21 20 20 19 19 18 18 18 17 17 17 17 17 17 17 17 17 17 17 17 17 17 17 17 17 17 16 16
20 22 21 21 20 18 20 18 19 20 19 19 19 19 20 21 22 22 21 21 21 20 20 19 18 18 17 17 17 16 16 16 16 17 17 17 17 17 16 16 16 17 17 17 17 17 17 17 16
21 22 21 20 19 18 19 18 18 18 19 19 18 18 20 21 22 22 21 20 20 20 20 19 18 17 17 17 16 16 16 15 16 16 16 16 16 16 16 16 16 16 16 17 17 17 17 17 16
21 20 19 17 17 17 18 18 17 18 19 20 19 19 20 21 22 21 21 20 20 20 19 19 18 17 17 16 16 15 15 15 15 15 15 16 16 16 16 15 15 16 16 16 16 17 17 17 16
20 19 17 17 16 16 18 18 17 19 19 19 19 20 21 22 22 21 21 21 20 20 19 18 18 17 17 16 16 15 15 15 15 15 15 15 15 15 15 15 15 15 15 16 16 16 16 16 16
18 18 18 17 17 16 18 17 18 20 20 20 21 22 22 22 22 22 22 21 21 20 19 18 18 17 16 16 15 15 15 15 15 15 15 15 15 15 15 15 14 14 15 15 15 16 16 16 16
19 18 19 17 17 17 17 18 19 20 21 21 21 21 22 23 23 23 22 21 21 20 19 18 18 17 16 16 15 15 15 15 15 15 15 15 15 15 15 15 14 14 14 14 15 15 16 16 16
19 17 15 16 16 16 17 18 18 20 20 21 20 20 22 23 23 23 22 22 21 20 19 18 17 17 16 16 15 15 15 15 15 15 15 15 15 15 15 15 15 14 14 14 15 15 16 16 16
18 18 16 14 15 15 16 17 18 18 19 19 19 21 22 23 23 23 22 22 21 20 19 18 17 17 16 16 16 15 15 15 15 15 15 15 15 15 15 15 15 15 15 15 15 15 15 15 15
17 17 15 16 16 15 14 16 18 18 18 18 19 21 22 22 23 23 22 22 21 20 19 19 18 17 17 16 16 15 15 15 15 15 15 15 15 15 15 15 15 15 14 14 14 14 15 15 15

GEFSSGP_850_meantemp_018.txt.gz
Temperature
22 23 24 24 28 28 27 28 28 28 28 27 27 27 27 27 26 25 20 20 19 19 19 19 19 19 19 19 18 18 18 18 18 18 18 18 18 18 18 18 18 18 18 18 18 18 18 18 18
22 23 23 26 29 28 27 28 28 28 27 26 26 27 27 26 23 21 19 19 19 19 19 19 19 19 19 19 18 18 18 18 18 18 18 18 18 18 18 18 18 18 18 18 18 18 18 18 18
22 23 25 29 28 28 27 28 28 28 26 27 27 26 26 25 22 21 20 19 19 19 18 18 19 19 19 19 18 18 18 18 18 18 18 18 18 18 18 18 18 18 18 18 18 18 18 18 18
22 24 26 29 28 28 28 29 28 28 27 26 27 27 25 22 22 21 20 19 19 19 18 18 19 19 19 19 18 18 18 18 18 18 18 18 18 18 17 17 18 18 18 18 18 17 17 17 17
22 26 28 28 28 28 29 29 28 28 28 27 27 27 25 22 21 20 19 19 19 19 18 18 19 19 19 18 18 18 18 18 18 18 18 18 18 17 17 17 18 18 18 18 18 17 17 17 17
25 28 28 28 28 28 29 28 28 28 28 27 26 27 25 21 20 20 19 19 19 18 18 18 19 19 19 18 18 18 18 18 18 18 18 18 18 17 17 17 18 18 18 18 18 17 17 17 17
26 28 28 28 27 28 29 28 29 29 28 28 27 27 25 22 21 20 20 19 19 19 18 18 18 18 18 18 18 18 18 18 18 18 18 18 17 17 17 17 18 18 18 18 17 17 17 17 17
24 28 28 28 27 28 29 28 28 28 28 26 26 27 26 23 21 20 20 20 19 19 18 18 18 18 18 18 18 18 18 18 18 18 18 17 17 17 17 17 18 18 18 18 17 17 17 17 17
23 27 28 28 28 28 28 28 28 27 27 26 26 26 25 23 21 20 20 20 19 19 19 19 18 18 18 18 18 18 18 18 18 18 18 17 17 16 16 16 17 18 17 17 17 16 16 17 17
25 27 28 28 28 29 28 28 28 28 28 27 26 24 23 22 22 21 21 21 20 19 19 19 19 18 18 17 18 18 18 18 17 17 17 17 16 16 16 17 17 17 17 17 17 17 16 16 16
26 27 27 27 27 28 28 28 28 28 28 28 27 26 23 23 22 22 22 22 21 20 20 19 19 18 18 18 18 18 18 18 17 17 17 17 16 16 16 16 16 16 16 16 16 16 16 16 16
26 27 27 27 27 27 28 28 28 28 28 28 27 27 25 24 23 23 23 22 21 21 20 20 19 19 18 18 17 17 17 17 17 17 17 17 16 16 16 16 16 16 16 16 16 16 16 16 17
27 27 26 26 26 27 27 28 28 28 27 27 27 26 25 25 25 24 23 23 22 21 20 20 19 19 19 18 18 17 17 17 17 17 17 16 16 16 16 16 16 16 16 16 16 16 16 16 16
26 26 26 26 27 27 28 28 27 28 27 27 27 26 26 26 25 25 24 23 22 22 21 20 20 19 19 18 18 18 17 17 17 17 16 16 16 16 16 16 16 16 16 16 16 17 16 16 16
25 26 27 27 27 28 27 28 28 28 27 27 27 27 27 26 25 25 25 24 23 22 21 20 20 20 19 19 18 18 18 17 17 17 16 16 16 16 16 16 16 16 16 16 16 16 16 16 15
26 26 26 27 27 27 27 27 29 27 27 28 28 27 26 26 25 25 24 23 23 22 21 21 20 20 19 19 19 18 18 17 17 17 17 16 16 16 16 16 16 16 16 16 16 16 16 16 16
26 26 27 27 27 27 27 27 28 27 27 27 27 27 27 26 25 25 23 23 22 22 21 21 20 20 20 19 19 18 18 18 17 17 17 16 16 16 16 16 16 16 16 16 16 16 16 16 15
26 26 26 27 27 27 26 27 28 28 27 27 28 27 27 27 26 24 23 23 23 22 21 21 20 19 19 19 19 18 18 17 17 17 17 16 16 16 16 16 16 16 16 16 16 16 15 15 15
24 25 25 26 26 26 26 27 27 28 27 27 28 28 28 27 25 23 23 23 23 22 21 21 20 19 19 19 18 18 18 18 17 17 17 17 17 16 16 16 16 16 16 16 16 15 15 15 15
23 23 24 25 25 25 26 26 27 28 28 28 28 28 27 26 25 23 22 22 22 22 21 21 20 19 19 18 18 18 18 18 17 17 17 17 17 16 16 16 16 16 16 16 16 15 15 15 15
21 22 22 22 24 25 25 25 27 28 28 27 26 26 26 25 24 23 22 22 22 21 21 21 20 20 19 18 18 18 18 18 18 17 17 17 17 16 16 16 16 16 16 16 16 16 16 15 15
20 21 21 21 22 23 24 24 26 27 27 28 27 26 24 23 23 22 22 21 21 20 21 20 20 19 19 18 17 17 17 17 17 17 17 17 17 16 16 16 16 16 16 16 16 16 16 16 15
20 21 21 20 21 22 24 24 26 27 26 27 27 25 24 23 23 22 21 21 20 20 20 19 19 19 18 17 17 17 17 17 16 16 16 16 16 16 16 16 16 16 16 16 16 16 15 15 15
21 20 20 21 22 22 24 24 25 27 26 26 26 24 23 22 22 22 21 21 20 20 20 20 19 19 18 17 17 16 16 16 16 16 16 16 16 16 16 16 16 16 16 15 15 15 15 15 15
23 22 21 21 22 23 24 24 25 26 26 25 25 24 23 22 22 22 21 20 20 20 19 19 19 18 18 17 17 16 16 16 15 15 15 15 16 16 16 16 16 15 15 15 15 15 15 15 15
23 23 22 21 22 23 23 24 25 26 25 24 24 23 23 22 22 21 21 21 20 19 19 19 18 18 17 17 16 16 16 15 15 15 15 15 15 15 15 15 15 15 15 15 14 14 14 15 15
24 23 24 23 23 22 24 24 26 26 26 25 24 23 23 23 22 22 21 21 20 19 19 19 18 17 17 17 16 16 16 15 15 15 15 15 15 15 15 15 14 14 14 14 14 14 14 14 15
24 24 23 23 22 22 23 24 24 25 25 25 25 25 24 23 23 23 22 21 20 20 19 19 18 18 17 17 16 16 16 15 15 15 15 15 14 14 14 14 14 14 13 13 13 13 13 14 14
22 22 23 23 22 22 22 23 25 24 24 24 25 24 24 23 23 23 22 21 21 20 20 19 19 18 17 17 16 16 16 15 15 15 15 15 14 14 14 14 14 13 13 13 13 13 13 13 13
21 22 22 21 21 21 20 22 24 24 24 24 24 23 23 22 22 22 22 21 21 21 20 20 19 18 18 17 16 16 16 16 15 15 15 15 14 14 14 14 14 13 13 13 13 13 13 13 13

GEFSSGP_850_meantemp_024.txt.gz
Temperature
24 24 24 24 24 26 28 29 29 29 30 30 30 30 29 27 26 23 22 22 21 20 21 20 20 20 20 19 19 19 19 19 19 19 19 19 18 18 18 18 18 18 18 18 18 18 19 19 19
24 24 24 24 24 27 28 29 29 29 30 30 30 30 28 27 25 23 22 22 21 20 20 20 20 20 20 19 19 19 19 19 19 19 18 18 18 18 18 18 18 18 18 18 18 18 18 18 19
24 24 25 26 27 28 28 29 29 30 30 30 30 29 27 27 25 23 22 21 21 20 19 20 20 20 19 19 19 19 18 18 18 18 18 18 18 18 18 18 18 18 18 18 18 18 18 18 18
24 25 27 27 28 29 30 30 30 30 30 30 29 28 26 26 25 23 22 21 21 20 19 20 20 20 19 19 19 19 18 18 18 18 18 18 18 18 18 18 18 18 18 18 18 18 18 18 18
25 26 26 27 29 30 31 31 31 30 30 30 29 28 26 24 23 22 22 21 21 20 19 20 20 19 19 19 19 18 18 18 18 18 18 18 18 18 18 18 18 18 18 18 18 18 18 18 18
26 28 25 26 29 30 31 31 31 31 30 30 29 28 26 24 23 22 22 21 21 20 19 19 19 19 19 19 19 18 18 18 18 18 18 18 17 17 17 18 18 18 18 18 18 18 18 18 18
26 25 25 26 28 30 31 31 31 31 31 30 29 28 26 25 23 22 22 21 21 20 19 19 19 19 19 19 19 18 18 18 18 18 18 17 17 17 17 18 18 18 18 18 18 18 18 18 18
26 27 27 28 29 29 31 31 31 30 30 29 29 28 26 25 24 23 22 22 21 20 19 19 19 19 19 19 19 18 18 18 18 18 18 17 17 17 17 18 18 18 18 18 17 18 18 18 18
26 27 26 28 29 30 31 31 31 30 30 29 29 28 26 25 24 23 23 22 22 21 20 19 19 18 18 18 19 19 18 18 18 18 18 18 17 17 17 18 18 18 18 17 17 18 18 18 18
28 26 27 28 30 30 31 31 30 30 30 30 29 27 26 25 25 24 23 23 22 22 21 20 19 19 18 18 19 19 18 18 18 18 18 17 17 17 17 18 18 18 17 17 17 17 17 18 18
29 28 29 30 30 31 31 30 30 30 30 30 29 27 26 26 25 25 24 24 23 23 22 21 20 19 19 18 18 18 18 18 18 17 18 17 17 17 17 17 18 17 17 17 17 17 18 18 18
29 29 30 30 30 30 30 30 30 30 30 30 29 28 27 26 26 25 25 24 24 23 22 22 21 20 19 19 19 18 18 18 18 17 17 17 17 17 17 17 17 17 17 17 17 18 18 18 19
28 29 30 29 29 29 30 30 30 30 30 30 29 28 27 27 26 26 26 25 24 23 22 22 22 21 20 19 19 19 18 18 18 18 18 18 18 17 17 17 17 17 17 17 17 18 18 18 18
28 29 29 29 29 29 30 30 30 30 30 30 30 29 28 28 27 27 26 26 25 24 23 22 22 22 21 20 20 19 19 18 18 18 18 18 18 18 18 17 17 17 18 18 18 18 18 18 18
28 28 28 29 29 30 30 29 30 30 30 30 30 29 29 28 28 28 27 26 26 25 24 23 22 22 21 21 20 19 19 19 18 18 18 18 18 18 18 18 17 18 18 18 18 18 18 17 17
28 28 27 29 30 30 29 27 30 30 30 30 30 29 29 29 28 28 28 27 26 25 24 23 22 22 22 21 20 20 19 19 19 18 18 18 18 18 18 18 17 17 18 18 18 18 17 17 17
27 27 27 28 30 29 29 28 30 30 30 30 29 29 29 29 28 28 28 27 27 26 25 24 23 22 22 21 21 20 19 19 19 18 18 18 18 18 18 18 18 18 18 18 17 17 17 17 17
25 26 26 26 26 26 26 27 29 30 29 29 29 29 29 29 28 28 28 27 27 26 25 25 24 22 22 21 21 20 19 19 19 18 18 18 18 18 18 18 18 18 18 17 17 17 17 17 17
25 25 26 25 24 24 25 26 28 29 29 29 29 29 29 29 29 28 28 27 26 25 25 24 24 23 22 21 20 20 19 19 19 18 18 18 18 18 18 18 17 18 18 17 17 17 17 17 17
25 24 24 24 24 24 24 25 27 28 28 29 29 29 29 30 29 28 27 26 25 24 24 23 23 22 21 21 20 20 19 19 18 18 18 18 18 18 18 18 17 18 17 17 17 17 17 16 16
23 22 22 21 22 23 23 23 25 27 28 28 29 29 29 29 28 27 26 25 24 23 23 22 22 21 21 20 20 19 18 18 18 18 18 18 18 17 17 17 17 17 17 17 17 17 16 16 16
23 23 21 21 20 20 20 20 23 25 25 27 28 28 28 28 28 26 25 24 23 22 22 21 21 21 20 20 19 18 18 18 18 18 18 18 18 17 17 17 17 17 17 17 17 16 16 16 16
24 23 22 21 20 19 20 19 21 24 24 26 27 28 28 28 27 25 24 23 23 22 21 21 21 20 20 19 18 18 18 18 18 17 17 17 17 17 17 17 17 17 16 16 16 16 16 16 16
24 23 22 21 20 20 21 21 21 23 24 25 27 27 27 27 26 25 24 23 22 21 21 21 20 20 19 19 18 18 18 17 17 17 17 17 17 17 16 16 16 16 16 16 16 16 16 16 16
24 23 21 20 19 20 22 22 22 24 25 26 26 27 27 26 25 24 23 22 22 21 21 20 20 20 19 19 19 19 18 18 17 17 17 17 16 16 16 16 16 16 16 16 16 16 16 15 15
24 24 21 20 20 20 21 21 24 25 26 26 26 26 25 25 24 24 23 22 21 21 21 20 20 20 19 19 19 19 19 18 17 17 17 16 16 16 16 16 16 16 16 16 15 15 15 15 15
24 24 25 23 22 21 22 22 24 24 25 25 26 25 24 24 24 23 22 22 21 21 21 20 20 20 19 19 19 19 19 18 17 17 16 16 16 16 15 15 15 15 15 15 15 15 15 15 15
24 24 23 21 19 20 22 22 19 20 20 21 23 24 24 24 23 23 23 22 22 21 21 20 20 20 19 19 19 18 18 18 17 17 16 16 15 15 15 15 15 15 15 15 15 14 14 14 14
21 21 21 21 20 20 19 19 19 16 16 17 19 21 22 22 22 23 23 23 22 22 21 21 20 20 19 19 19 18 18 17 17 16 16 16 15 15 15 15 15 15 15 15 14 14 14 14 14
19 17 17 17 18 19 18 18 18 17 17 18 19 20 22 22 23 23 23 23 23 22 22 21 20 20 20 19 19 18 18 17 17 16 16 16 15 15 15 15 15 15 15 14 14 14 14 13 13

GEFSSGP_850_meantemp_030.txt.gz
Temperature
23 23 24 23 20 20 23 24 25 26 26 26 26 25 23 22 22 21 21 20 20 20 20 19 19 19 19 19 19 19 19 19 19 19 19 18 18 18 18 18 18 18 18 18 18 19 19 19 19
24 24 24 23 20 21 23 24 25 27 26 26 25 25 23 22 22 21 20 20 20 20 20 20 19 19 19 19 19 19 19 19 19 19 18 18 18 18 18 18 18 18 18 18 18 18 19 18 18
24 24 23 21 22 22 24 25 25 27 28 27 25 25 23 22 22 21 21 20 20 20 20 20 19 19 19 19 19 19 19 19 19 19 18 18 18 18 18 18 18 18 18 18 18 18 18 18 18
24 24 23 21 24 24 25 25 26 27 27 26 25 24 23 22 22 22 21 20 20 20 20 20 20 19 19 19 19 19 19 19 19 19 18 18 18 18 18 18 18 18 18 18 18 18 18 18 18
24 23 21 22 24 26 25 26 27 26 26 25 24 22 22 22 22 21 20 20 20 20 20 20 20 19 19 19 19 19 19 18 18 18 18 18 18 18 18 18 18 18 18 18 18 18 18 18 18
24 21 21 22 24 26 27 28 28 26 26 25 24 22 21 22 21 21 20 20 20 20 20 20 19 19 19 19 19 19 18 18 18 18 18 18 18 18 18 18 18 18 18 18 18 18 18 18 18
23 20 21 22 23 26 27 28 27 26 25 25 24 22 21 21 21 21 21 20 20 20 20 20 20 19 19 19 19 19 18 18 18 18 18 18 18 18 18 18 18 18 18 18 18 18 18 18 18
24 20 21 21 23 25 28 29 29 28 27 26 25 22 21 22 21 21 21 21 20 20 20 20 20 19 19 19 19 19 18 18 18 18 18 18 18 18 18 18 18 18 18 18 18 18 18 18 18
24 20 20 21 23 25 27 28 29 29 28 27 26 25 24 22 21 21 21 20 20 20 20 20 20 19 19 19 19 19 18 18 18 18 18 18 18 18 18 18 18 18 18 18 17 17 17 17 17
23 21 22 23 23 24 26 28 29 27 26 25 25 25 23 22 22 21 21 21 21 20 20 20 20 20 19 19 19 19 19 19 18 18 18 18 18 18 18 18 18 18 18 17 17 17 17 17 17
23 22 23 24 25 26 26 28 29 27 24 24 24 24 23 22 22 22 22 22 22 21 21 20 20 20 20 19 19 19 19 19 18 18 18 18 18 18 18 18 18 18 17 17 17 17 17 17 17
24 24 24 25 26 27 27 28 28 28 28 27 26 25 23 23 23 23 23 22 22 21 21 21 20 20 20 20 19 19 19 19 19 18 18 18 18 17 17 18 18 18 17 17 17 17 17 17 17
24 25 26 27 27 27 28 28 28 28 28 27 26 25 24 24 24 24 24 23 22 22 22 21 21 21 21 20 20 20 19 19 19 18 18 18 17 17 17 17 17 17 17 17 17 17 17 17 17
25 25 26 26 27 27 27 27 27 28 28 27 26 25 25 25 25 24 24 23 23 22 22 22 21 21 21 21 20 20 20 19 19 19 18 18 17 17 17 17 17 17 17 17 17 17 17 17 17
25 24 24 25 25 25 26 25 25 27 27 26 26 26 26 26 25 25 24 24 23 23 23 23 22 22 21 21 21 20 20 20 19 19 18 18 18 17 17 17 17 17 17 17 17 17 17 17 17
24 23 22 23 22 24 24 23 24 25 26 26 26 26 26 26 26 26 25 25 24 24 23 23 23 22 22 21 21 21 20 20 19 19 18 18 18 17 17 17 17 17 17 17 17 17 17 17 17
21 21 21 22 22 22 22 22 22 23 24 24 25 25 26 26 26 26 26 25 25 24 24 23 23 23 22 21 21 21 20 20 20 19 19 18 18 18 17 17 17 17 17 17 17 17 17 17 17
20 20 20 21 20 21 20 20 21 22 22 23 24 25 25 26 26 26 26 26 25 25 24 23 23 23 22 21 21 20 20 20 19 19 19 19 18 18 18 17 17 17 17 17 17 17 17 17 17
20 20 20 20 20 20 20 20 20 21 21 22 23 24 25 26 26 26 26 26 25 25 24 24 23 22 22 21 21 20 20 20 19 19 19 19 18 18 18 18 17 17 17 17 17 17 17 17 17
21 20 20 20 20 21 19 20 20 20 21 22 23 23 25 25 26 26 26 26 25 25 24 24 23 23 22 21 21 21 20 20 19 19 19 18 18 18 18 18 17 17 17 17 17 17 17 17 16
21 20 20 19 19 20 19 18 19 20 21 22 22 23 24 25 25 26 26 26 25 25 24 24 23 22 22 21 21 20 19 19 19 19 18 18 18 18 18 17 17 17 17 17 17 17 17 17 17
20 20 20 19 18 17 18 16 17 18 18 19 20 22 23 25 25 25 25 25 25 24 24 23 23 22 22 21 20 20 20 19 19 19 18 18 17 17 17 17 17 17 17 17 17 17 17 17 17
20 20 19 19 17 16 17 16 16 16 17 18 19 20 22 24 24 24 24 24 23 23 23 22 22 22 21 21 20 20 19 19 18 18 18 18 17 17 17 17 17 17 17 17 17 17 17 17 17
20 19 18 16 15 16 16 16 16 15 16 16 17 18 19 21 22 22 22 22 22 22 22 22 22 21 21 21 20 20 19 19 18 18 18 18 17 17 17 17 17 17 16 16 16 16 16 16 16
19 17 16 16 15 15 17 17 15 15 16 16 16 16 17 19 20 21 21 22 22 22 22 21 21 21 21 21 20 19 19 18 18 18 18 17 17 17 17 17 16 16 16 16 16 16 16 16 16
18 17 16 16 15 16 17 16 15 16 16 16 16 16 16 17 18 19 20 21 22 22 22 22 22 22 21 20 20 19 19 18 18 18 17 17 17 17 16 16 16 16 16 16 16 16 16 16 15
17 16 16 15 16 16 16 16 15 16 15 16 16 15 15 16 17 17 18 19 21 21 21 22 21 21 21 20 19 19 18 18 18 17 17 17 17 16 16 16 16 16 16 16 15 15 15 15 15
16 15 13 14 15 15 15 15 14 14 14 15 15 15 15 16 16 17 18 18 20 20 21 21 21 21 20 20 19 19 18 18 18 17 17 17 17 16 16 16 16 16 15 15 15 15 15 15 15
14 14 13 13 13 14 14 14 14 13 14 14 15 15 15 16 16 17 18 18 19 20 20 20 20 20 20 20 19 19 18 18 18 18 17 17 17 16 16 16 16 16 15 15 15 15 15 14 14
15 13 12 12 13 13 13 13 13 13 14 14 14 15 16 16 17 17 18 19 19 20 20 20 20 20 20 19 19 18 18 18 18 18 17 17 16 16 16 16 16 16 15 15 15 15 14 14 14

GEFSSGP_850_meantemp_036.txt.gz
Temperature
23 23 23 23 21 19 22 23 23 24 23 23 24 23 22 21 22 21 21 21 21 20 20 19 19 19 19 19 19 19 19 19 19 19 19 19 19 19 19 19 19 19 19 19 19 19 19 19 18
23 23 23 23 19 20 22 23 23 24 24 24 23 22 21 20 21 21 20 20 20 20 20 19 19 19 19 19 19 19 19 19 19 18 18 18 18 19 19 19 19 19 19 19 18 18 18 18 18
23 23 23 19 21 21 23 24 24 24 24 24 23 22 21 21 21 21 21 20 20 20 20 19 19 19 19 19 19 19 19 18 18 18 18 18 18 18 19 19 19 19 18 18 18 18 18 18 18
23 23 23 20 23 22 23 24 23 24 24 24 23 21 21 21 21 21 20 20 20 20 19 19 19 19 19 19 19 18 18 18 18 18 18 18 18 18 18 19 19 18 18 18 18 18 18 18 18
23 23 20 21 22 22 23 24 24 24 24 23 22 21 21 21 21 21 20 20 20 20 19 19 19 19 19 19 18 18 18 18 18 18 18 18 18 18 18 18 19 18 18 18 18 18 18 18 18
24 20 20 21 21 22 23 25 25 24 23 23 22 21 20 21 21 20 20 20 20 20 20 19 19 19 19 18 18 18 18 18 18 18 18 18 18 18 18 18 18 18 18 18 17 17 18 18 18
22 19 20 21 21 22 24 25 25 23 23 23 23 20 20 20 20 20 20 19 19 19 20 19 19 19 19 18 18 18 18 18 18 18 18 18 18 18 18 18 18 18 18 18 17 17 17 17 17
23 19 21 21 22 23 24 25 25 25 24 23 23 21 20 21 20 20 19 19 19 19 19 20 19 19 19 19 18 18 18 18 18 18 18 18 18 18 18 18 18 18 18 18 17 17 17 17 17
23 19 21 22 22 23 24 25 25 25 24 23 23 24 23 21 20 20 19 19 19 19 19 20 20 19 19 19 19 18 18 18 18 18 18 18 18 18 18 18 18 18 18 17 17 17 17 17 17
22 20 22 22 22 23 23 24 25 25 23 23 23 23 23 22 21 20 20 20 20 20 20 20 20 20 19 19 19 19 18 18 18 18 18 18 18 18 18 18 18 18 17 17 17 17 17 17 17
22 21 22 22 23 23 23 25 25 24 23 24 24 24 23 22 21 21 21 21 21 20 20 20 20 20 19 19 19 19 19 19 18 18 18 18 18 18 18 18 18 17 17 17 17 17 16 17 17
22 22 22 23 24 24 24 25 25 25 26 26 26 26 24 23 22 22 22 21 21 21 20 20 20 20 20 19 19 19 19 19 19 19 18 18 18 18 18 18 18 17 17 17 17 17 17 17 17
22 23 23 24 24 24 24 24 25 25 26 26 26 25 24 24 23 23 23 22 21 21 21 20 20 20 20 20 20 19 19 19 19 19 18 18 18 18 18 18 17 17 17 17 17 17 17 17 17
22 23 23 23 23 23 23 24 24 23 25 25 25 24 24 24 24 23 22 22 22 22 21 21 21 20 20 20 20 20 20 19 19 19 18 18 18 18 18 18 17 17 17 17 17 17 17 17 17
23 22 22 21 22 22 23 23 21 22 23 23 23 23 23 23 23 23 23 23 23 23 22 22 21 21 21 20 20 20 20 19 19 19 18 18 18 17 17 18 17 17 17 17 17 17 17 17 17
21 21 21 21 21 21 23 22 21 22 22 22 22 22 22 22 23 23 23 23 23 23 23 22 22 21 21 21 21 20 20 20 19 19 18 18 18 17 17 17 17 17 17 17 17 17 17 17 17
19 20 20 21 21 20 21 21 21 21 21 20 21 21 22 22 22 23 23 23 23 23 23 23 22 22 22 21 21 20 20 20 19 19 18 18 18 17 17 17 17 17 17 17 17 17 17 17 16
20 20 20 20 20 20 20 20 19 20 19 19 19 20 20 21 22 23 23 23 23 23 23 23 23 22 22 21 20 20 20 20 19 19 19 18 18 18 17 17 17 17 17 17 17 17 16 16 16
20 19 19 19 20 20 19 18 18 18 17 17 17 18 18 20 21 22 23 23 23 23 23 23 23 22 22 21 21 20 20 20 19 19 19 18 18 18 18 17 17 17 17 17 17 17 16 16 16
19 19 19 19 19 20 18 17 17 17 16 16 16 16 16 18 20 22 23 23 23 24 24 24 23 23 22 22 21 21 20 20 19 19 19 18 18 18 18 17 17 17 17 17 17 17 16 16 16
19 18 19 19 18 18 18 17 16 16 16 16 16 15 15 16 18 21 22 23 23 24 24 24 23 23 22 22 21 20 20 20 19 19 19 18 18 18 17 17 17 17 17 17 17 17 16 16 16
17 18 18 18 17 16 17 16 16 14 14 15 15 15 15 15 17 19 21 22 22 23 23 23 22 22 22 21 20 20 20 20 19 19 18 18 18 17 17 17 17 17 17 17 16 16 16 16 16
18 17 17 17 16 15 15 15 14 13 13 14 15 15 14 15 16 18 19 20 21 21 21 21 21 20 20 20 20 19 19 19 19 18 18 18 17 17 17 17 17 17 16 16 16 16 16 16 16
17 16 15 13 14 15 16 15 14 13 13 14 14 14 14 14 16 17 18 19 19 20 20 20 19 19 19 19 19 18 18 18 18 18 18 17 17 17 17 17 16 16 16 16 16 16 16 16 15
15 14 14 14 13 14 15 14 14 14 14 14 14 14 14 14 15 16 16 17 17 17 18 18 18 18 18 18 18 18 18 18 18 17 17 17 17 17 17 16 16 16 16 16 16 16 16 15 15
15 14 14 14 14 14 15 14 14 14 14 14 14 14 14 14 14 15 15 16 16 16 17 17 17 17 17 17 18 18 18 18 18 17 17 17 17 16 16 16 16 16 16 16 16 15 15 15 15
14 13 13 13 13 13 14 14 14 14 13 13 13 13 13 13 14 14 15 15 16 16 16 16 16 17 17 17 18 18 18 18 17 17 17 17 16 16 16 16 16 16 16 15 15 15 15 15 15
13 12 11 12 12 13 13 13 12 12 12 12 13 13 13 13 14 14 15 15 16 16 16 16 16 17 17 18 18 18 18 17 17 17 17 16 16 16 16 16 16 16 16 15 15 15 15 15 14
12 11 11 10 11 12 13 13 12 11 12 12 12 12 12 12 13 14 14 15 15 16 16 16 17 17 17 17 18 18 18 17 17 17 16 16 16 16 16 16 16 16 16 15 15 15 15 14 14
12 11 10 10 11 11 12 12 12 11 11 12 12 12 12 12 13 14 14 15 15 16 16 17 17 17 17 17 17 17 17 17 17 17 16 16 16 16 16 15 15 15 15 15 15 15 14 14 14

GEFSSGP_850_meantemp_042.txt.gz
Temperature
22 23 23 23 27 28 27 28 28 28 28 28 27 27 28 27 27 25 20 20 20 19 19 20 19 19 19 19 19 19 19 19 19 19 19 19 19 19 19 19 19 19 19 19 18 19 19 19 19
22 23 23 26 29 28 27 28 28 28 28 27 26 27 27 26 23 21 19 19 19 19 19 19 20 20 19 19 19 19 19 19 19 19 19 19 19 19 19 19 19 18 18 18 18 18 18 18 18
23 24 25 29 29 28 28 28 28 28 27 27 27 26 26 24 22 21 20 19 19 19 18 19 20 19 19 19 19 19 19 19 19 19 19 19 19 19 19 19 19 18 18 18 18 18 18 18 18
23 24 27 29 28 28 28 29 29 28 27 26 27 26 24 22 22 21 20 19 19 19 18 19 19 19 19 19 19 19 19 19 19 19 19 19 19 19 18 18 18 18 18 18 18 18 18 18 18
23 27 29 28 28 29 29 29 28 29 28 27 27 27 24 21 21 20 20 19 19 19 18 19 19 19 19 19 19 19 19 19 19 19 19 19 19 18 18 18 18 18 18 18 18 18 18 18 18
26 28 29 28 28 29 29 29 29 29 28 27 27 26 24 21 20 20 20 19 19 19 18 18 19 19 19 19 19 19 19 19 19 18 18 18 18 18 18 18 18 18 18 18 18 18 18 18 18
27 28 28 28 28 28 29 28 29 29 29 28 27 27 24 22 20 20 20 20 20 19 19 18 18 19 19 19 19 19 18 18 18 18 18 18 18 18 18 18 18 18 18 18 18 18 18 18 17
25 28 28 28 28 28 28 28 28 28 28 26 26 27 25 22 20 20 20 20 20 19 19 18 18 18 18 18 19 18 18 18 18 18 18 18 18 18 18 18 18 18 18 18 18 18 18 18 17
24 28 28 28 28 28 28 28 28 27 27 26 26 26 25 22 21 20 20 20 19 19 19 19 18 18 18 18 18 18 18 18 18 18 18 18 17 17 17 17 18 18 18 18 18 18 18 18 17
26 28 28 27 28 28 28 28 28 28 28 27 26 24 23 22 21 21 21 20 20 19 19 19 19 18 18 18 17 18 18 18 18 17 17 17 17 17 17 17 18 18 18 18 18 18 18 17 17
27 27 27 27 26 27 28 28 27 28 28 28 27 25 23 22 22 22 22 21 21 20 19 19 19 18 18 18 18 18 18 18 17 17 17 17 17 17 17 17 17 17 17 17 17 17 17 17 17
27 27 26 27 25 26 27 27 27 27 27 26 26 26 24 23 23 22 22 22 21 20 20 19 19 18 18 18 18 18 18 18 18 17 17 17 17 17 17 17 17 17 16 16 17 17 17 17 18
27 27 26 25 25 26 26 27 26 26 25 25 26 25 25 24 24 23 23 22 22 21 20 19 19 19 19 18 18 18 18 18 18 17 17 17 17 17 17 17 17 17 17 16 16 17 17 17 17
26 26 26 25 26 26 26 26 26 24 24 25 25 25 25 25 24 24 23 23 22 21 21 20 19 19 19 19 18 18 18 18 18 17 17 17 17 17 17 17 17 17 17 17 17 17 17 17 17
25 26 26 26 26 26 26 26 25 23 24 24 24 24 24 24 24 24 24 23 23 22 21 21 20 19 19 19 18 18 18 18 17 17 17 17 17 17 17 17 17 17 17 17 17 17 17 17 17
26 26 26 26 26 25 26 26 23 22 23 23 23 23 22 22 23 23 23 23 22 22 22 21 20 20 19 19 18 18 18 18 18 17 17 17 17 17 17 17 17 17 17 17 17 17 17 17 17
26 26 26 26 25 26 26 25 23 22 22 22 21 21 21 21 21 21 21 22 22 22 22 21 21 20 20 19 19 18 18 18 18 18 17 17 17 17 17 17 17 17 16 17 17 17 17 17 17
26 26 26 25 25 25 25 23 23 21 21 21 21 21 21 21 20 20 20 20 21 22 22 21 21 20 20 19 19 19 18 18 18 18 18 17 17 17 17 17 17 17 16 16 16 16 16 17 16
25 25 25 25 24 24 24 23 22 21 21 20 20 20 20 19 19 19 19 20 20 21 22 22 21 21 20 20 20 19 19 19 18 18 18 18 17 17 17 17 17 17 17 16 16 16 16 16 16
24 24 25 24 23 24 24 23 22 21 20 19 19 19 19 18 18 18 18 19 19 20 21 21 21 21 21 20 20 20 19 19 18 18 18 18 18 17 17 17 17 17 17 16 16 16 16 16 16
24 23 23 23 23 23 23 23 22 21 20 20 19 18 18 17 17 17 17 18 19 19 20 21 21 21 21 20 20 20 19 19 19 18 18 18 18 18 17 17 17 17 17 16 16 16 16 16 16
23 22 22 22 23 23 23 23 23 21 21 20 19 18 18 17 17 17 16 17 17 18 19 20 21 21 20 20 19 20 19 18 18 17 17 18 18 18 17 17 17 17 17 17 16 16 16 16 16
21 21 21 22 22 23 23 22 23 21 20 19 19 18 17 16 16 16 16 16 16 17 18 19 20 20 19 19 19 19 18 17 17 17 17 17 17 17 17 17 17 17 17 17 16 16 16 16 16
21 21 22 22 22 21 22 22 20 18 17 18 18 17 16 16 16 15 15 15 15 16 17 17 18 18 18 18 18 17 17 16 16 16 16 16 17 17 17 17 17 17 16 16 16 16 16 16 16
21 20 21 21 20 21 22 21 17 16 17 17 16 16 15 15 15 15 15 15 15 15 16 16 16 17 17 17 17 16 16 16 16 16 16 16 16 17 17 17 17 16 16 16 16 16 16 16 16
19 19 18 18 19 19 19 18 15 16 16 16 15 15 15 14 14 14 14 14 14 15 15 15 15 16 16 16 16 16 16 16 16 16 16 16 16 16 16 16 16 16 16 16 16 16 16 16 15
18 18 18 17 18 18 18 17 16 16 16 15 15 14 14 13 13 13 14 14 14 14 14 14 15 15 15 15 15 15 15 15 16 16 16 16 16 16 16 16 16 16 16 16 15 15 16 15 15
17 17 17 17 16 16 17 15 13 14 13 14 13 13 12 13 13 13 13 13 13 14 14 14 14 15 15 15 15 15 15 16 16 16 16 16 16 16 16 16 15 15 16 16 15 15 15 15 15
16 16 16 16 16 15 15 13 12 12 12 12 12 11 11 12 12 12 13 13 13 14 14 14 14 14 14 14 15 15 15 15 16 16 16 16 16 16 15 15 15 15 15 15 15 15 15 15 15
15 14 14 14 15 15 13 12 11 11 11 11 11 11 11 11 12 12 12 13 13 13 14 14 14 14 14 15 15 15 15 15 15 15 15 16 15 15 15 15 15 15 15 15 15 15 15 15 14

GEFSSGP_850_meantemp_048.txt.gz
Temperature
24 24 23 23 24 26 28 28 29 29 30 30 30 30 29 27 25 23 22 22 21 20 21 20 20 20 20 20 20 20 19 19 19 19 19 19 19 19 19 19 19 19 19 19 19 19 19 19 19
25 24 24 24 25 27 27 28 29 30 30 30 30 30 29 27 25 23 22 22 20 20 21 20 20 20 20 20 20 20 19 19 19 19 19 19 19 19 19 19 19 19 19 19 19 19 19 19 19
25 24 25 25 27 28 28 29 30 30 30 30 30 29 27 26 25 23 22 21 20 20 20 20 20 20 20 20 20 19 19 19 19 19 19 19 19 19 19 19 19 19 19 19 18 18 19 19 19
25 26 27 28 28 29 30 30 31 31 30 30 30 28 26 26 25 23 22 22 20 20 20 20 20 20 20 20 20 19 19 19 19 19 19 19 19 19 19 19 19 19 19 18 18 18 18 18 19
27 27 27 28 29 30 31 31 31 31 31 30 29 27 25 24 24 23 22 22 21 20 20 20 20 20 20 20 19 19 19 19 19 19 19 19 19 19 19 19 19 19 19 18 18 18 18 18 18
28 28 26 27 29 31 31 32 32 31 31 30 30 27 25 24 23 23 23 22 21 20 20 20 20 20 20 19 19 19 19 19 19 18 18 18 18 19 19 19 19 19 19 19 18 18 18 18 18
27 27 26 28 29 30 31 32 31 31 30 30 30 28 26 24 23 23 23 23 22 21 20 20 20 20 20 19 19 19 19 19 18 18 18 18 18 18 19 19 19 19 19 19 18 18 18 18 18
27 28 28 28 28 29 31 31 31 31 30 30 30 29 27 25 24 24 23 23 22 21 20 20 19 20 20 20 19 19 19 19 18 18 18 18 18 19 18 19 19 19 19 19 18 18 18 18 18
27 28 26 28 28 29 31 31 31 31 30 30 29 28 26 25 24 24 24 24 23 22 21 20 19 19 19 19 19 19 19 19 18 18 18 18 18 18 18 18 19 19 19 19 18 18 18 18 18
29 26 25 28 30 29 30 30 31 31 30 30 29 27 26 25 25 24 24 24 23 23 22 21 20 19 19 19 19 19 19 19 19 18 18 18 18 17 17 18 18 19 19 19 19 18 18 18 18
30 28 28 29 30 30 30 30 30 30 28 29 29 28 26 26 25 25 25 25 24 23 23 22 21 20 19 19 19 19 18 18 18 18 18 18 18 18 18 18 18 19 19 18 18 18 18 18 18
29 29 29 30 29 29 30 30 29 28 28 29 29 28 27 26 26 26 26 25 24 24 23 22 22 21 20 20 19 19 19 19 18 18 18 18 18 18 18 18 18 18 18 18 18 18 19 19 19
29 29 29 29 29 29 29 29 28 27 28 28 29 28 27 27 26 26 26 26 25 24 23 23 22 22 21 20 20 19 19 19 19 18 18 18 18 19 19 18 18 18 18 18 18 18 19 19 19
29 29 29 29 29 29 29 29 28 27 27 28 28 28 27 27 27 26 26 26 25 24 23 23 22 22 22 21 20 20 20 19 19 19 19 19 19 19 19 19 19 18 18 18 18 19 19 19 18
29 29 29 29 29 29 29 27 27 26 27 27 27 27 26 26 26 26 25 25 25 25 24 23 23 22 22 22 21 20 20 20 19 19 19 19 19 19 19 19 19 19 18 19 19 19 19 18 18
29 29 28 28 28 28 28 25 25 25 26 26 26 26 25 25 25 24 24 24 24 24 24 24 23 22 22 22 21 21 20 20 20 19 19 19 19 19 19 19 19 18 18 19 19 19 18 18 18
28 27 26 25 26 27 27 24 25 25 25 26 25 25 25 24 23 23 23 23 23 24 24 24 23 23 22 22 21 21 20 20 20 19 19 19 19 19 19 19 19 18 18 18 18 18 18 18 18
26 26 26 26 26 26 26 25 25 25 25 25 25 25 24 23 22 22 21 21 22 22 23 23 23 23 22 22 21 21 20 20 20 19 19 19 19 19 19 18 18 18 18 18 18 18 18 18 18
27 27 26 26 27 26 26 26 26 25 24 24 24 24 23 22 22 21 20 20 21 21 21 22 22 22 22 22 21 21 20 20 20 19 19 19 19 19 18 18 18 18 18 18 17 18 17 17 17
27 27 26 26 26 26 25 25 25 24 24 23 23 22 21 21 21 20 20 19 19 19 20 20 21 22 22 22 21 20 20 20 19 19 19 19 18 18 18 18 18 18 17 17 17 17 17 17 17
25 25 25 24 25 25 25 24 24 23 22 21 21 21 20 20 19 19 18 18 18 18 18 19 20 21 21 21 21 20 20 19 19 19 19 18 18 18 18 17 17 17 17 17 17 17 17 17 17
23 24 24 24 23 23 24 22 21 20 19 19 19 19 18 18 18 18 17 17 17 17 17 18 19 20 20 20 20 20 20 19 19 19 19 18 18 17 17 17 17 17 17 17 17 17 17 17 16
23 24 24 24 23 23 24 23 19 19 17 17 17 17 17 17 17 17 16 16 16 16 16 17 18 18 19 20 20 19 19 19 18 18 18 17 17 17 17 17 17 17 17 16 16 16 16 16 16
24 24 24 24 24 22 22 21 16 15 15 15 16 16 16 16 15 15 15 15 15 15 16 16 17 17 18 18 19 19 18 18 18 17 17 17 17 16 16 16 16 16 16 16 16 16 16 16 16
23 22 21 21 21 21 22 18 14 15 15 15 14 14 14 14 14 14 14 14 14 15 15 15 16 16 16 17 17 17 17 17 17 17 16 16 16 16 16 16 16 16 16 16 16 16 16 16 16
21 21 19 18 19 19 19 16 14 14 14 14 14 14 14 13 13 13 13 13 14 14 14 15 15 15 15 16 16 16 16 16 16 16 16 16 16 15 15 16 16 16 16 16 16 16 16 16 16
20 20 20 19 20 19 17 15 15 14 14 13 13 13 13 12 12 13 13 13 13 13 14 14 14 14 15 15 15 15 15 15 15 15 15 15 15 15 15 15 15 16 16 16 16 16 16 16 16
20 19 19 18 17 17 16 14 12 12 12 13 12 12 12 12 12 12 13 13 13 13 13 14 14 14 14 14 14 14 15 15 14 14 15 15 15 15 15 16 16 16 16 16 16 16 16 16 16
19 18 18 18 17 16 14 13 12 12 12 12 12 11 11 12 12 12 12 13 13 13 13 13 14 14 14 14 14 14 14 14 14 15 15 15 15 15 15 16 16 16 16 16 16 16 16 15 15
18 18 18 16 16 15 14 12 13 12 12 12 12 12 12 12 12 12 12 12 13 13 13 13 13 13 13 14 14 14 14 14 14 14 15 15 15 15 15 16 16 16 16 16 15 15 15 15 15

GEFSSGP_850_meantemp_054.txt.gz
Temperature
24 23 23 23 20 20 23 25 25 26 26 26 26 24 23 22 22 21 20 20 20 20 20 20 20 20 20 20 20 20 20 20 20 20 20 20 20 20 20 20 20 20 20 20 19 19 19 19 19
24 24 24 23 20 21 24 25 26 26 26 26 25 24 23 22 21 20 19 20 21 21 20 20 20 20 20 20 20 20 19 19 20 20 20 20 20 20 20 20 20 20 19 19 19 19 19 19 19
24 24 24 21 22 22 25 25 26 27 28 27 25 24 23 22 20 20 21 20 21 21 20 20 20 20 20 20 20 19 19 19 19 19 19 19 19 20 20 20 19 19 19 19 19 19 19 19 19
25 24 24 21 24 25 26 26 26 27 27 26 25 23 23 22 22 21 21 21 21 21 20 20 20 20 20 20 20 19 19 19 19 19 19 19 19 19 19 19 19 19 19 19 19 19 19 19 19
25 24 22 23 25 26 26 27 28 26 26 25 24 22 22 22 22 21 21 21 21 21 20 20 20 20 20 20 20 19 19 19 19 19 19 19 19 19 19 19 19 19 19 19 19 19 19 19 19
25 22 22 23 25 26 27 28 27 26 25 24 23 22 21 22 21 21 21 21 21 21 21 20 20 20 20 20 20 19 19 19 19 19 19 19 19 19 19 19 19 19 19 19 19 19 19 19 19
25 22 22 23 24 26 27 28 27 25 25 25 24 22 21 21 21 21 21 21 21 21 21 21 20 20 20 20 20 19 19 19 19 19 19 19 19 19 19 19 19 19 19 19 19 19 19 19 18
26 21 22 22 23 25 27 28 28 27 26 26 25 22 22 22 21 21 21 21 21 21 21 21 21 20 20 20 20 19 19 19 19 19 19 19 19 19 19 19 19 19 19 19 19 19 19 18 18
26 20 21 22 22 23 26 27 28 27 27 26 26 25 24 23 22 21 21 21 21 21 21 21 21 21 20 20 20 19 19 19 19 19 19 19 19 19 19 19 19 19 19 19 19 18 18 18 18
25 21 22 22 22 22 24 26 27 26 25 25 25 24 23 23 22 22 21 21 21 21 21 21 21 21 20 20 20 19 19 19 19 19 19 18 18 18 18 18 19 19 19 19 19 18 18 18 18
25 22 23 23 24 24 25 26 26 25 23 23 24 23 23 23 22 22 22 22 22 22 21 21 21 21 20 20 20 19 19 19 19 19 19 18 18 18 18 18 18 19 19 19 18 18 18 18 18
26 25 24 25 26 25 26 26 25 24 23 24 24 24 23 22 22 22 22 22 22 22 21 21 21 21 21 20 20 20 19 19 19 19 19 18 18 18 18 18 18 18 19 18 18 18 18 18 18
26 25 26 26 26 26 25 24 24 23 23 24 23 23 22 22 22 22 22 22 22 22 22 21 21 21 21 20 20 20 20 19 19 19 19 18 18 18 18 18 18 18 18 18 18 18 18 18 18
26 26 26 25 25 24 24 23 23 22 22 22 22 21 21 21 21 21 21 21 21 21 21 21 21 21 21 20 20 20 20 20 19 19 19 19 18 18 18 18 18 18 18 18 18 18 18 18 18
27 25 24 23 23 23 23 21 20 20 21 21 20 20 20 20 20 20 20 20 20 21 21 21 21 21 21 21 20 20 20 20 19 19 19 19 18 18 18 18 18 18 18 18 18 18 18 18 18
25 23 23 22 22 22 22 19 19 20 20 19 19 19 19 19 19 19 19 20 20 20 20 20 20 20 21 21 21 20 20 20 20 19 19 19 19 18 18 18 18 18 18 18 18 18 18 18 18
21 22 22 22 22 22 20 18 18 18 18 17 17 17 17 17 18 18 18 19 19 19 20 20 20 20 20 20 20 20 20 20 20 19 19 19 19 18 18 18 18 18 18 18 18 18 18 18 18
21 22 21 21 21 20 18 17 17 17 16 16 16 16 16 16 16 17 18 18 18 19 19 19 20 20 20 20 20 20 20 20 20 19 19 19 19 19 18 18 18 18 18 18 18 18 18 18 18
22 21 21 21 21 19 17 16 16 16 16 15 15 15 15 15 16 17 17 17 18 18 18 19 19 19 19 20 20 20 20 20 20 20 19 19 19 19 18 18 18 18 18 18 18 18 18 18 18
21 20 19 20 20 19 16 16 16 15 15 15 14 14 14 14 15 16 16 17 17 17 17 18 18 19 19 19 19 19 20 20 19 19 19 19 18 18 18 18 18 18 18 18 18 18 18 17 17
20 20 20 20 19 19 17 15 14 14 14 14 14 13 13 13 13 14 15 16 16 16 16 17 17 18 18 19 19 19 19 19 19 19 19 18 18 18 18 18 18 18 18 18 18 18 17 17 17
19 20 20 20 18 16 17 14 13 13 13 13 13 13 13 13 13 13 14 15 15 15 15 16 16 17 17 18 18 18 19 19 19 19 18 18 18 18 18 17 17 17 17 17 17 17 17 17 17
19 19 19 19 17 16 15 13 12 12 12 12 12 12 12 12 12 13 13 13 14 14 15 15 15 16 16 17 17 17 18 18 18 18 18 18 18 17 17 17 17 17 17 17 17 17 17 17 17
17 17 17 15 14 14 13 13 12 11 11 12 12 12 12 12 12 12 13 13 14 14 14 14 15 15 16 16 16 17 17 17 17 17 17 17 17 17 16 16 16 16 16 16 16 16 16 16 16
15 14 14 14 13 13 14 13 12 12 12 12 12 12 12 12 12 12 12 13 13 13 14 14 14 15 15 15 15 16 16 16 16 16 16 16 16 16 16 16 16 16 16 15 16 16 16 16 16
16 14 13 14 13 13 13 12 11 12 12 12 12 12 12 12 12 12 12 12 13 13 13 13 14 14 14 14 15 15 15 15 15 15 15 15 15 15 15 15 15 15 15 15 15 15 15 15 15
15 14 14 13 13 12 12 12 12 13 12 12 12 12 12 12 12 12 12 12 12 12 13 13 13 13 14 14 14 14 14 14 15 15 15 15 15 15 15 15 15 14 14 15 15 15 15 15 15
15 14 12 12 12 12 12 12 11 11 11 11 12 12 12 12 12 12 12 12 12 12 12 13 13 13 13 13 14 14 14 14 14 14 14 14 14 14 14 14 14 14 14 15 15 15 15 15 15
14 14 12 11 11 11 11 11 12 11 11 11 11 12 12 12 12 12 12 12 12 12 12 12 13 13 13 13 13 13 13 13 14 14 14 14 14 14 14 14 14 14 14 15 15 15 15 15 15
15 14 12 11 11 11 11 11 13 12 12 12 12 13 13 13 13 12 12 12 12 12 12 12 12 12 13 13 13 13 13 13 14 14 14 14 14 14 14 14 14 14 15 15 15 15 15 15 15

GEFSSGP_850_meantemp_060.txt.gz
Temperature
22 22 22 21 20 19 22 23 23 24 23 23 23 22 21 20 21 21 21 21 21 21 20 20 20 20 20 19 19 19 19 19 19 19 19 19 19 19 19 19 19 19 19 19 19 19 19 19 19
23 23 22 22 20 20 22 23 24 24 24 23 23 22 21 19 20 20 20 20 21 21 20 20 20 20 20 20 19 19 19 19 19 19 19 19 19 19 19 19 19 19 19 19 19 19 19 19 19
23 23 23 19 21 21 24 24 24 24 24 24 22 21 21 20 20 20 21 20 20 20 20 20 20 20 20 20 19 19 19 19 19 19 19 19 19 19 19 19 19 19 19 19 19 19 19 19 19
24 23 23 20 23 23 24 24 24 24 24 23 22 21 20 20 21 21 21 21 20 21 20 20 20 20 20 20 19 19 19 19 19 19 19 19 19 19 19 19 19 19 19 19 19 19 18 18 19
24 24 21 21 23 23 24 24 24 24 23 22 22 20 20 20 21 21 21 21 21 21 20 20 20 20 20 20 19 19 19 19 19 19 19 19 19 19 19 19 19 19 19 19 18 18 18 18 18
25 22 20 21 22 23 24 24 24 23 22 22 21 20 20 20 21 21 21 21 21 21 20 20 20 20 20 20 19 19 19 19 19 19 19 19 19 19 19 19 19 19 19 19 18 18 18 18 18
24 20 21 21 22 23 24 24 24 22 22 22 22 20 20 20 21 21 20 20 20 20 20 20 20 20 20 20 19 19 19 19 19 19 19 19 19 19 19 19 19 19 19 18 18 18 18 18 18
25 20 21 21 22 23 23 24 24 23 22 22 22 20 20 20 20 20 20 20 20 20 20 20 20 20 20 20 20 19 19 19 19 19 19 19 19 19 19 19 19 19 19 18 18 18 18 18 18
25 20 21 22 22 22 22 23 23 23 22 21 21 21 21 21 20 20 20 20 20 20 20 20 20 20 20 20 19 19 19 19 19 19 19 19 19 19 19 19 19 19 19 18 18 18 18 18 18
24 21 23 22 22 21 21 21 21 21 21 20 20 20 21 20 20 20 20 20 20 20 20 20 20 20 20 19 19 19 19 19 19 19 19 19 19 19 19 19 19 19 19 18 18 18 18 18 17
23 22 22 22 22 22 21 20 19 19 18 18 18 19 19 19 19 19 19 19 20 20 20 20 20 20 19 19 19 19 19 19 19 19 18 18 18 18 19 19 19 19 19 18 18 18 18 17 17
23 22 22 22 22 21 20 19 18 17 17 17 18 18 18 18 18 18 19 19 19 19 19 19 20 20 19 19 19 19 19 19 19 19 18 18 18 18 18 18 19 19 19 18 18 18 18 17 17
23 22 21 21 20 19 18 18 17 16 16 17 17 18 17 17 17 17 18 18 18 19 19 19 19 19 19 19 19 19 19 19 19 18 18 18 18 18 18 18 19 19 19 18 18 18 18 17 17
23 21 21 20 19 18 17 16 16 15 15 16 16 16 16 16 16 17 17 17 18 18 18 19 19 19 19 19 19 19 19 19 19 19 18 18 18 18 18 18 18 18 18 18 18 18 18 17 17
23 21 20 20 20 19 18 16 15 15 15 15 15 15 15 15 16 16 16 16 17 17 18 18 19 19 19 19 19 19 19 19 19 19 19 18 18 18 18 18 18 18 18 18 18 18 18 18 18
22 21 19 19 18 18 17 14 15 14 14 14 14 14 14 15 15 15 16 16 16 17 17 17 18 18 19 19 19 19 19 19 19 19 19 18 18 18 18 18 18 18 18 18 17 18 17 18 18
20 20 19 18 17 17 15 14 14 14 14 13 13 13 13 14 15 15 15 15 16 16 16 17 17 18 18 18 19 19 19 19 19 19 19 18 18 18 18 18 18 18 18 18 17 17 17 18 18
21 20 18 17 16 15 14 14 14 13 13 13 13 13 13 13 13 14 14 15 15 16 16 16 17 17 17 18 18 19 19 19 19 19 19 18 18 18 18 18 18 18 18 18 18 18 17 18 18
20 19 18 17 16 15 14 13 13 13 13 12 12 12 12 12 13 14 14 14 15 15 16 16 16 17 17 17 18 18 18 19 19 19 19 18 18 18 18 18 18 18 18 18 18 17 17 17 17
18 18 17 16 16 15 13 13 13 13 13 12 12 12 12 12 13 13 14 14 14 15 15 15 16 16 16 17 17 17 18 18 18 18 18 18 18 18 18 18 18 18 18 18 17 17 17 17 17
18 18 17 16 15 14 14 13 12 12 13 13 12 12 12 12 12 12 13 13 13 14 14 14 15 15 16 16 16 17 17 17 17 18 18 18 18 18 18 18 18 17 17 17 17 17 17 17 17
17 18 17 16 14 13 13 13 12 11 11 12 12 12 12 12 12 12 12 13 13 13 13 14 14 14 15 15 15 16 16 16 17 17 17 17 17 17 17 17 17 17 17 17 17 17 16 16 16
17 16 15 15 13 12 12 12 11 10 11 11 12 12 12 12 12 12 12 12 12 13 13 13 13 14 14 14 14 15 15 15 16 16 16 17 17 17 17 17 17 17 17 17 16 16 16 16 16
15 15 14 12 12 12 11 11 11 10 11 11 12 12 12 12 12 12 12 12 12 13 13 13 13 13 13 14 14 14 14 15 15 15 16 16 16 16 16 16 16 16 16 16 16 16 16 16 16
13 13 13 13 11 12 12 11 11 12 12 11 11 12 12 12 12 12 12 12 12 12 12 13 13 13 13 13 14 14 14 14 15 15 15 15 15 15 16 16 16 16 16 16 15 15 15 15 15
13 13 13 13 12 11 11 11 11 12 12 12 12 12 12 12 12 12 12 11 12 12 12 12 12 12 13 13 13 13 14 14 14 14 15 15 15 15 15 15 15 15 15 15 15 15 15 15 15
14 11 12 11 11 11 11 11 12 12 12 12 12 12 12 12 12 12 12 12 12 11 12 12 12 12 12 13 13 13 13 13 14 14 14 14 14 15 15 15 14 14 14 14 14 14 14 14 14
12 11 10 11 11 11 12 11 10 11 11 11 12 12 12 12 12 12 12 12 12 11 11 12 12 12 12 12 13 13 13 13 13 14 14 14 14 14 14 14 14 14 14 14 14 14 14 14 14
13 12 9 9 10 10 11 11 11 11 11 10 11 12 12 12 12 12 12 12 12 11 11 11 12 12 12 12 12 13 13 13 13 13 13 14 14 14 14 14 14 14 14 14 14 14 14 14 14
13 12 10 11 10 9 10 10 12 11 11 11 12 13 13 13 13 12 12 12 12 12 11 12 12 12 12 12 12 12 12 13 13 13 13 13 13 13 13 13 14 14 14 14 14 14 14 14 14